MAS727 WMKK-WIII

Flight info

Callsign MAS727
Flight time 1h 53m
Altitude 35000
Route MITOS1D MITOS M630 BOBAG P501 ANITO B470 BUNIK
Aircraft B738/M-SDE2E3FGHIRWXY/LB1

Departure

Time 2026-05-05 15:16
Airport Kuala Lumpur International Airport (WMKK)

Arrival

Time 2026-05-05 17:09
Airport Soekarno-Hatta International Airport (WIII)
Time Latitude Longitude Altitude Speed Heading
2026-05-05 14:27 2.75333 101.70737 72 ft 0 kts 310°
2026-05-05 15:01 2.75319 101.70751 62 ft 4 kts 327°
2026-05-05 15:01 2.75301 101.70762 63 ft 4 kts 326°
2026-05-05 15:02 2.75279 101.70776 63 ft 4 kts 336°
2026-05-05 15:02 2.75257 101.70781 69 ft 4 kts 39°
2026-05-05 15:02 2.75244 101.70763 67 ft 2 kts 57°
2026-05-05 15:02 2.75243 101.70762 62 ft 0 kts 57°
2026-05-05 15:06 2.75244 101.70764 67 ft 1 kts 57°
2026-05-05 15:06 2.75257 101.70783 69 ft 6 kts 57°
2026-05-05 15:07 2.75287 101.70829 72 ft 10 kts 56°
2026-05-05 15:07 2.75331 101.70894 66 ft 11 kts 56°
2026-05-05 15:07 2.75374 101.70959 69 ft 11 kts 56°
2026-05-05 15:07 2.75416 101.71022 63 ft 11 kts 56°
2026-05-05 15:08 2.75457 101.71083 70 ft 10 kts 56°
2026-05-05 15:08 2.75496 101.71143 69 ft 10 kts 57°
2026-05-05 15:08 2.75533 101.71200 67 ft 10 kts 55°
2026-05-05 15:08 2.75571 101.71255 70 ft 10 kts 56°
2026-05-05 15:09 2.75609 101.71311 68 ft 10 kts 56°
2026-05-05 15:09 2.75650 101.71370 71 ft 10 kts 58°
2026-05-05 15:09 2.75643 101.71435 69 ft 10 kts 137°
2026-05-05 15:09 2.75587 101.71474 65 ft 10 kts 146°
2026-05-05 15:10 2.75532 101.71511 70 ft 9 kts 146°
2026-05-05 15:10 2.75478 101.71547 71 ft 9 kts 146°
2026-05-05 15:10 2.75423 101.71584 70 ft 10 kts 147°
2026-05-05 15:10 2.75359 101.71627 67 ft 12 kts 146°
2026-05-05 15:11 2.75292 101.71672 67 ft 11 kts 146°
2026-05-05 15:11 2.75228 101.71715 64 ft 11 kts 146°
2026-05-05 15:11 2.75162 101.71759 63 ft 12 kts 146°
2026-05-05 15:11 2.75095 101.71804 66 ft 12 kts 146°
2026-05-05 15:12 2.75030 101.71847 67 ft 11 kts 146°
2026-05-05 15:12 2.74966 101.71891 73 ft 11 kts 146°
2026-05-05 15:12 2.74903 101.71932 77 ft 11 kts 147°
2026-05-05 15:12 2.74843 101.71972 77 ft 11 kts 147°
2026-05-05 15:13 2.74780 101.72013 71 ft 11 kts 146°
2026-05-05 15:13 2.74759 101.72077 75 ft 11 kts 65°
2026-05-05 15:13 2.74775 101.72100 74 ft 0 kts 56°
2026-05-05 15:14 2.74779 101.72106 75 ft 3 kts 55°
2026-05-05 15:14 2.74806 101.72146 70 ft 10 kts 55°
2026-05-05 15:14 2.74862 101.72190 77 ft 11 kts 341°
2026-05-05 15:14 2.74927 101.72147 67 ft 12 kts 327°
2026-05-05 15:15 2.75027 101.72080 77 ft 34 kts 326°
2026-05-05 15:15 2.75433 101.71806 66 ft 105 kts 326°
2026-05-05 15:15 2.76216 101.71279 70 ft 163 kts 325°
2026-05-05 15:15 2.77212 101.70603 539 ft 177 kts 326°
2026-05-05 15:16 2.78230 101.69920 1269 ft 180 kts 326°
2026-05-05 15:16 2.79279 101.69214 2037 ft 183 kts 326°
2026-05-05 15:16 2.80513 101.68642 2430 ft 210 kts 342°
2026-05-05 15:16 2.81970 101.68182 2613 ft 236 kts 341°
2026-05-05 15:17 2.83583 101.67625 2978 ft 252 kts 340°
2026-05-05 15:17 2.85292 101.67011 3383 ft 268 kts 340°
2026-05-05 15:17 2.87071 101.66367 4117 ft 274 kts 340°
2026-05-05 15:17 2.88891 101.65808 5004 ft 274 kts 354°
2026-05-05 15:18 2.90746 101.66033 5822 ft 274 kts 23°
2026-05-05 15:18 2.92286 101.67123 6612 ft 276 kts 50°
2026-05-05 15:18 2.93294 101.68770 7341 ft 281 kts 65°
2026-05-05 15:18 2.94098 101.70563 8051 ft 285 kts 66°
2026-05-05 15:19 2.94780 101.72434 8783 ft 290 kts 81°
2026-05-05 15:19 2.94654 101.74441 9523 ft 293 kts 108°
2026-05-05 15:19 2.93677 101.76227 10223 ft 296 kts 130°
2026-05-05 15:19 2.92203 101.77754 10524 ft 316 kts 136°
2026-05-05 15:20 2.90535 101.79309 10693 ft 339 kts 137°
2026-05-05 15:20 2.88742 101.80945 10837 ft 359 kts 137°
2026-05-05 15:20 2.86880 101.82647 11061 ft 374 kts 137°
2026-05-05 15:20 2.84945 101.84431 11533 ft 380 kts 137°
2026-05-05 15:21 2.83028 101.86213 12123 ft 381 kts 136°
2026-05-05 15:21 2.81085 101.88029 12754 ft 383 kts 136°
2026-05-05 15:21 2.79132 101.89861 13336 ft 386 kts 136°
2026-05-05 15:21 2.77174 101.91701 13863 ft 389 kts 136°
2026-05-05 15:22 2.75193 101.93563 14342 ft 391 kts 136°
2026-05-05 15:22 2.73205 101.95433 14822 ft 394 kts 136°
2026-05-05 15:22 2.71199 101.97319 15298 ft 396 kts 136°
2026-05-05 15:22 2.69181 101.99216 15764 ft 399 kts 136°
2026-05-05 15:23 2.67153 102.01123 16226 ft 402 kts 136°
2026-05-05 15:23 2.65111 102.03042 16672 ft 404 kts 135°
2026-05-05 15:23 2.63059 102.04971 17114 ft 407 kts 135°
2026-05-05 15:23 2.60982 102.06918 17529 ft 410 kts 137°
2026-05-05 15:24 2.58599 102.08505 17903 ft 417 kts 155°
2026-05-05 15:24 2.55793 102.09265 18311 ft 422 kts 173°
2026-05-05 15:24 2.52880 102.09345 18689 ft 425 kts 178°
2026-05-05 15:24 2.49908 102.09335 19025 ft 428 kts 178°
2026-05-05 15:25 2.46923 102.09353 19363 ft 430 kts 178°
2026-05-05 15:25 2.43911 102.09396 19689 ft 433 kts 177°
2026-05-05 15:25 2.40897 102.09454 20024 ft 434 kts 177°
2026-05-05 15:25 2.37870 102.09517 20356 ft 436 kts 177°
2026-05-05 15:26 2.34819 102.09580 20681 ft 439 kts 177°
2026-05-05 15:26 2.31765 102.09642 20985 ft 441 kts 177°
2026-05-05 15:26 2.28688 102.09703 21290 ft 443 kts 177°
2026-05-05 15:26 2.25601 102.09762 21588 ft 445 kts 177°
2026-05-05 15:27 2.22498 102.09822 21886 ft 447 kts 177°
2026-05-05 15:27 2.19382 102.09881 22178 ft 448 kts 177°
2026-05-05 15:27 2.16252 102.09941 22459 ft 450 kts 177°
2026-05-05 15:27 2.14182 102.09981 22639 ft 452 kts 177°
2026-05-05 15:28 2.09996 102.10061 22983 ft 454 kts 177°
2026-05-05 15:28 2.06828 102.10122 23247 ft 456 kts 177°
2026-05-05 15:28 2.03647 102.10182 23493 ft 458 kts 177°
2026-05-05 15:28 2.00493 102.10510 23661 ft 457 kts 162°
2026-05-05 15:29 1.98495 102.11292 23789 ft 455 kts 150°
2026-05-05 15:29 1.95167 102.13791 24105 ft 452 kts 131°
2026-05-05 15:29 1.93884 102.15424 24241 ft 451 kts 123°
2026-05-05 15:29 1.92132 102.18033 24443 ft 452 kts 122°
2026-05-05 15:30 1.90411 102.20674 24615 ft 455 kts 122°
2026-05-05 15:30 1.88688 102.23330 24788 ft 456 kts 122°
2026-05-05 15:30 1.86950 102.25991 24997 ft 457 kts 122°
2026-05-05 15:30 1.85200 102.28647 25202 ft 458 kts 123°
2026-05-05 15:31 1.83437 102.31301 25401 ft 459 kts 123°
2026-05-05 15:31 1.81659 102.33965 25578 ft 461 kts 123°
2026-05-05 15:31 1.79877 102.36627 25746 ft 462 kts 123°
2026-05-05 15:31 1.78082 102.39306 25925 ft 463 kts 123°
2026-05-05 15:32 1.76287 102.41984 26100 ft 464 kts 123°
2026-05-05 15:32 1.74485 102.44673 26252 ft 466 kts 123°
2026-05-05 15:32 1.72676 102.47373 26414 ft 468 kts 123°
2026-05-05 15:32 1.70865 102.50078 26596 ft 468 kts 123°
2026-05-05 15:33 1.69051 102.52787 26775 ft 469 kts 123°
2026-05-05 15:33 1.67257 102.55466 26939 ft 470 kts 123°
2026-05-05 15:33 1.65435 102.58186 27093 ft 472 kts 123°
2026-05-05 15:33 1.63586 102.60947 27248 ft 473 kts 123°
2026-05-05 15:34 1.61778 102.63646 27392 ft 474 kts 123°
2026-05-05 15:34 1.59945 102.66383 27543 ft 475 kts 123°
2026-05-05 15:34 1.58105 102.69131 27686 ft 476 kts 123°
2026-05-05 15:34 1.56266 102.71876 27832 ft 477 kts 123°
2026-05-05 15:35 1.54419 102.74633 28013 ft 477 kts 123°
2026-05-05 15:35 1.52573 102.77389 28235 ft 476 kts 123°
2026-05-05 15:35 1.50732 102.80137 28453 ft 476 kts 123°
2026-05-05 15:35 1.48890 102.82888 28654 ft 475 kts 123°
2026-05-05 15:36 1.47049 102.85635 28915 ft 474 kts 123°
2026-05-05 15:36 1.45212 102.88378 29165 ft 473 kts 123°
2026-05-05 15:36 1.43410 102.91068 29397 ft 472 kts 123°
2026-05-05 15:36 1.41583 102.93796 29634 ft 472 kts 123°
2026-05-05 15:37 1.39757 102.96521 29850 ft 472 kts 123°
2026-05-05 15:37 1.37933 102.99244 30077 ft 471 kts 123°
2026-05-05 15:37 1.36116 103.01963 30286 ft 470 kts 123°
2026-05-05 15:37 1.34302 103.04679 30486 ft 470 kts 123°
2026-05-05 15:38 1.32489 103.07398 30684 ft 470 kts 123°
2026-05-05 15:38 1.30680 103.10111 30900 ft 469 kts 123°
2026-05-05 15:38 1.28869 103.12826 31120 ft 468 kts 123°
2026-05-05 15:38 1.27064 103.15533 31321 ft 469 kts 123°
2026-05-05 15:39 1.25253 103.18248 31501 ft 469 kts 123°
2026-05-05 15:39 1.23443 103.20960 31727 ft 469 kts 123°
2026-05-05 15:39 1.21638 103.23665 31982 ft 467 kts 123°
2026-05-05 15:39 1.19836 103.26365 32228 ft 466 kts 123°
2026-05-05 15:40 1.18036 103.29062 32445 ft 466 kts 123°
2026-05-05 15:40 1.16236 103.31760 32672 ft 466 kts 123°
2026-05-05 15:40 1.14441 103.34451 32922 ft 465 kts 123°
2026-05-05 15:40 1.12646 103.37141 33168 ft 464 kts 123°
2026-05-05 15:41 1.10857 103.39822 33404 ft 464 kts 123°
2026-05-05 15:41 1.09071 103.42499 33660 ft 463 kts 123°
2026-05-05 15:41 1.07287 103.45172 33903 ft 462 kts 123°
2026-05-05 15:41 1.05500 103.47849 34100 ft 462 kts 123°
2026-05-05 15:42 1.03637 103.50468 34282 ft 463 kts 129°
2026-05-05 15:42 1.01462 103.52852 34448 ft 464 kts 133°
2026-05-05 15:42 0.99205 103.55150 34663 ft 463 kts 134°
2026-05-05 15:42 0.96932 103.57431 34858 ft 463 kts 134°
2026-05-05 15:43 0.94682 103.59694 34856 ft 466 kts 134°
2026-05-05 15:43 0.90119 103.64347 34868 ft 464 kts 133°
2026-05-05 15:44 0.85670 103.68936 34877 ft 461 kts 133°
2026-05-05 15:44 0.81220 103.73540 34880 ft 459 kts 133°
2026-05-05 15:45 0.76787 103.78124 34879 ft 458 kts 133°
2026-05-05 15:45 0.72361 103.82699 34888 ft 458 kts 133°
2026-05-05 15:46 0.67926 103.87282 34890 ft 459 kts 133°
2026-05-05 15:46 0.63473 103.91884 34890 ft 461 kts 133°
2026-05-05 15:47 0.59006 103.96502 34893 ft 463 kts 133°
2026-05-05 15:47 0.54544 104.01110 34892 ft 465 kts 133°
2026-05-05 15:48 0.50040 104.05754 34894 ft 466 kts 133°
2026-05-05 15:48 0.45521 104.10413 34891 ft 467 kts 133°
2026-05-05 15:49 0.40995 104.15081 34895 ft 467 kts 133°
2026-05-05 15:49 0.36475 104.19745 34895 ft 467 kts 133°
2026-05-05 15:50 0.31945 104.24418 34896 ft 467 kts 133°
2026-05-05 15:50 0.27467 104.29044 34898 ft 466 kts 133°
2026-05-05 15:51 0.22945 104.33720 34900 ft 465 kts 133°
2026-05-05 15:51 0.18480 104.38336 34897 ft 464 kts 133°
2026-05-05 15:52 0.14004 104.42963 34900 ft 463 kts 133°
2026-05-05 15:52 0.09535 104.47582 34899 ft 462 kts 133°
2026-05-05 15:53 0.05066 104.52201 34906 ft 462 kts 133°
2026-05-05 15:53 0.00603 104.56816 34907 ft 462 kts 133°
2026-05-05 15:54 -0.03867 104.61437 34909 ft 462 kts 133°
2026-05-05 15:54 -0.08334 104.66055 34915 ft 462 kts 133°
2026-05-05 15:55 -0.12802 104.70674 34912 ft 463 kts 133°
2026-05-05 15:55 -0.17255 104.75278 34905 ft 464 kts 133°
2026-05-05 15:56 -0.21746 104.79921 34910 ft 464 kts 133°
2026-05-05 15:56 -0.26236 104.84564 34907 ft 465 kts 133°
2026-05-05 15:57 -0.31121 104.88770 34916 ft 466 kts 144°
2026-05-05 15:57 -0.36524 104.92371 34906 ft 467 kts 145°
2026-05-05 15:58 -0.41942 104.95953 34906 ft 467 kts 145°
2026-05-05 15:58 -0.47338 104.99568 34907 ft 467 kts 144°
2026-05-05 15:59 -0.52724 105.03206 34907 ft 467 kts 144°
2026-05-05 15:59 -0.58091 105.06840 34907 ft 466 kts 144°
2026-05-05 16:00 -0.63463 105.10475 34907 ft 466 kts 144°
2026-05-05 16:00 -0.68801 105.14087 34910 ft 466 kts 144°
2026-05-05 16:01 -0.74167 105.17717 34905 ft 465 kts 144°
2026-05-05 16:01 -0.79531 105.21345 34906 ft 465 kts 144°
2026-05-05 16:02 -0.84899 105.24976 34904 ft 466 kts 144°
2026-05-05 16:02 -0.90258 105.28602 34905 ft 466 kts 144°
2026-05-05 16:03 -0.95630 105.32236 34906 ft 466 kts 144°
2026-05-05 16:03 -1.00995 105.35865 34907 ft 466 kts 144°
2026-05-05 16:04 -1.06363 105.39497 34906 ft 466 kts 144°
2026-05-05 16:04 -1.11736 105.43133 34903 ft 466 kts 144°
2026-05-05 16:05 -1.17074 105.46745 34908 ft 466 kts 144°
2026-05-05 16:05 -1.22450 105.50382 34908 ft 467 kts 144°
2026-05-05 16:06 -1.27835 105.54026 34904 ft 467 kts 144°
2026-05-05 16:06 -1.33212 105.57665 34907 ft 467 kts 144°
2026-05-05 16:07 -1.38594 105.61307 34906 ft 467 kts 144°
2026-05-05 16:07 -1.43989 105.64959 34908 ft 468 kts 144°
2026-05-05 16:08 -1.49348 105.68586 34906 ft 468 kts 144°
2026-05-05 16:08 -1.54740 105.72236 34911 ft 468 kts 144°
2026-05-05 16:09 -1.60143 105.75894 34909 ft 469 kts 144°
2026-05-05 16:09 -1.65546 105.79552 34910 ft 469 kts 144°
2026-05-05 16:10 -1.70954 105.83213 34910 ft 469 kts 144°
2026-05-05 16:10 -1.76372 105.86881 34912 ft 470 kts 144°
2026-05-05 16:11 -1.81783 105.90545 34911 ft 470 kts 144°
2026-05-05 16:12 -1.92610 105.97878 34907 ft 470 kts 144°
2026-05-05 16:13 -2.06108 106.07021 34912 ft 470 kts 144°
2026-05-05 16:13 -2.11520 106.10689 34911 ft 470 kts 144°
2026-05-05 16:14 -2.17191 106.13935 34913 ft 472 kts 157°
2026-05-05 16:14 -2.23560 106.15524 34920 ft 473 kts 169°
2026-05-05 16:15 -2.36593 106.17620 34911 ft 474 kts 169°
2026-05-05 16:16 -2.49556 106.19822 34912 ft 474 kts 169°
2026-05-05 16:17 -2.59310 106.21497 34916 ft 474 kts 169°
2026-05-05 16:18 -2.68010 106.22989 34907 ft 474 kts 169°
2026-05-05 16:19 -2.77727 106.24655 34915 ft 474 kts 169°
2026-05-05 16:19 -2.87481 106.26327 34911 ft 474 kts 169°
2026-05-05 16:20 -3.00486 106.28557 34909 ft 474 kts 169°
2026-05-05 16:22 -3.16712 106.31340 34907 ft 475 kts 169°
2026-05-05 16:23 -3.29763 106.33579 34908 ft 476 kts 169°
2026-05-05 16:23 -3.39554 106.35260 34907 ft 476 kts 169°
2026-05-05 16:24 -3.46075 106.36379 34906 ft 476 kts 169°
2026-05-05 16:25 -3.55871 106.38061 34908 ft 476 kts 169°
2026-05-05 16:25 -3.65646 106.39758 34912 ft 475 kts 168°
2026-05-05 16:26 -3.78642 106.42201 34909 ft 475 kts 168°
2026-05-05 16:27 -3.85149 106.43422 34909 ft 475 kts 168°
2026-05-05 16:27 -3.91649 106.44636 34905 ft 475 kts 168°
2026-05-05 16:28 -3.98120 106.45843 34907 ft 475 kts 168°
2026-05-05 16:28 -4.04623 106.47056 34902 ft 476 kts 168°
2026-05-05 16:29 -4.11133 106.48271 34913 ft 476 kts 168°
2026-05-05 16:29 -4.17649 106.49488 34912 ft 477 kts 168°
2026-05-05 16:30 -4.24187 106.50709 34910 ft 478 kts 168°
2026-05-05 16:30 -4.30725 106.51929 34912 ft 478 kts 168°
2026-05-05 16:31 -4.37268 106.53152 34908 ft 479 kts 168°
2026-05-05 16:31 -4.43821 106.54376 34913 ft 479 kts 168°
2026-05-05 16:32 -4.50368 106.55599 34898 ft 479 kts 168°
2026-05-05 16:32 -4.56909 106.56822 34909 ft 478 kts 168°
2026-05-05 16:33 -4.63442 106.58043 34905 ft 477 kts 168°
2026-05-05 16:33 -4.69922 106.59255 34889 ft 477 kts 168°
2026-05-05 16:34 -4.73207 106.59869 34316 ft 484 kts 168°
2026-05-05 16:34 -4.76512 106.60487 33654 ft 483 kts 168°
2026-05-05 16:34 -4.79812 106.61105 32912 ft 483 kts 168°
2026-05-05 16:34 -4.83120 106.61723 32168 ft 484 kts 168°
2026-05-05 16:35 -4.86424 106.62388 31385 ft 484 kts 163°
2026-05-05 16:35 -4.89582 106.63568 30607 ft 484 kts 154°
2026-05-05 16:35 -4.92630 106.65008 29737 ft 486 kts 152°
2026-05-05 16:35 -4.95679 106.66506 28925 ft 485 kts 152°
2026-05-05 16:36 -4.98696 106.67973 28316 ft 479 kts 153°
2026-05-05 16:36 -5.01698 106.69396 27701 ft 474 kts 154°
2026-05-05 16:36 -5.04676 106.70777 27090 ft 469 kts 154°
2026-05-05 16:36 -5.07634 106.72133 26528 ft 464 kts 154°
2026-05-05 16:37 -5.10550 106.73465 26142 ft 455 kts 154°
2026-05-05 16:37 -5.13389 106.74763 25963 ft 442 kts 154°
2026-05-05 16:37 -5.16150 106.76028 25765 ft 430 kts 154°
2026-05-05 16:37 -5.18836 106.77258 25440 ft 422 kts 154°
2026-05-05 16:38 -5.21506 106.78471 24983 ft 419 kts 154°
2026-05-05 16:38 -5.24157 106.79669 24510 ft 417 kts 154°
2026-05-05 16:38 -5.26793 106.80860 24042 ft 415 kts 154°
2026-05-05 16:38 -5.29389 106.82034 23573 ft 413 kts 154°
2026-05-05 16:39 -5.32005 106.83218 23033 ft 411 kts 154°
2026-05-05 16:39 -5.34599 106.84393 22539 ft 407 kts 154°
2026-05-05 16:39 -5.37172 106.85559 22062 ft 404 kts 154°
2026-05-05 16:39 -5.39723 106.86716 21597 ft 400 kts 154°
2026-05-05 16:40 -5.42252 106.87861 21219 ft 395 kts 154°
2026-05-05 16:40 -5.44717 106.88966 21067 ft 384 kts 156°
2026-05-05 16:40 -5.47294 106.89526 20866 ft 378 kts 176°
2026-05-05 16:40 -5.49903 106.89234 20379 ft 381 kts 195°
2026-05-05 16:41 -5.52403 106.88346 19932 ft 380 kts 199°
2026-05-05 16:41 -5.54875 106.87372 19416 ft 382 kts 200°
2026-05-05 16:41 -5.57342 106.86382 18919 ft 383 kts 200°
2026-05-05 16:41 -5.59826 106.85391 18416 ft 384 kts 200°
2026-05-05 16:42 -5.62323 106.84408 17866 ft 385 kts 200°
2026-05-05 16:42 -5.64784 106.83449 17343 ft 384 kts 199°
2026-05-05 16:42 -5.67275 106.82483 16830 ft 383 kts 199°
2026-05-05 16:42 -5.69757 106.81525 16331 ft 381 kts 199°
2026-05-05 16:43 -5.72231 106.80571 15832 ft 380 kts 199°
2026-05-05 16:43 -5.74695 106.79620 15342 ft 379 kts 200°
2026-05-05 16:43 -5.77156 106.78671 14836 ft 378 kts 199°
2026-05-05 16:43 -5.79606 106.77725 14341 ft 377 kts 200°
2026-05-05 16:44 -5.82058 106.76780 13840 ft 376 kts 199°
2026-05-05 16:44 -5.84489 106.75801 13296 ft 376 kts 205°
2026-05-05 16:44 -5.86559 106.74215 12792 ft 376 kts 228°
2026-05-05 16:44 -5.87943 106.72057 12372 ft 373 kts 245°
2026-05-05 16:45 -5.88907 106.69656 11957 ft 368 kts 248°
2026-05-05 16:45 -5.89818 106.67264 11518 ft 365 kts 248°
2026-05-05 16:45 -5.90731 106.64888 11102 ft 362 kts 248°
2026-05-05 16:45 -5.91651 106.62546 10693 ft 359 kts 248°
2026-05-05 16:46 -5.92574 106.60228 10277 ft 356 kts 247°
2026-05-05 16:46 -5.93498 106.57922 9896 ft 353 kts 247°
2026-05-05 16:46 -5.94407 106.55682 9869 ft 338 kts 247°
2026-05-05 16:46 -5.95279 106.53548 9837 ft 321 kts 247°
2026-05-05 16:47 -5.96098 106.51542 9787 ft 301 kts 247°
2026-05-05 16:47 -5.96878 106.49632 9521 ft 291 kts 247°
2026-05-05 16:47 -5.97643 106.47758 9067 ft 289 kts 246°
2026-05-05 16:47 -5.98405 106.45891 8637 ft 287 kts 247°
2026-05-05 16:48 -5.99067 106.44027 8380 ft 283 kts 258°
2026-05-05 16:48 -5.99131 106.42071 8171 ft 281 kts 280°
2026-05-05 16:48 -5.98484 106.40212 7995 ft 284 kts 302°
2026-05-05 16:48 -5.97219 106.38700 7772 ft 285 kts 323°
2026-05-05 16:49 -5.95519 106.37758 7728 ft 275 kts 344°
2026-05-05 16:49 -5.93687 106.37260 7676 ft 279 kts 348°
2026-05-05 16:49 -5.91785 106.36820 7556 ft 281 kts 349°
2026-05-05 16:49 -5.89884 106.36391 7452 ft 278 kts 349°
2026-05-05 16:50 -5.88003 106.35970 7391 ft 276 kts 349°
2026-05-05 16:50 -5.86135 106.35553 7352 ft 274 kts 349°
2026-05-05 16:50 -5.84275 106.35139 7331 ft 274 kts 350°
2026-05-05 16:50 -5.82398 106.34714 7344 ft 279 kts 349°
2026-05-05 16:51 -5.80492 106.34394 7321 ft 276 kts
2026-05-05 16:51 -5.78637 106.34707 7315 ft 268 kts 24°
2026-05-05 16:51 -5.77062 106.35678 7316 ft 266 kts 45°
2026-05-05 16:51 -5.75977 106.37164 7319 ft 264 kts 67°
2026-05-05 16:52 -5.75540 106.38933 7314 ft 261 kts 89°
2026-05-05 16:52 -5.75794 106.40708 7316 ft 261 kts 107°
2026-05-05 16:52 -5.76420 106.42426 7278 ft 264 kts 115°
2026-05-05 16:52 -5.77286 106.44063 7214 ft 266 kts 117°
2026-05-05 16:53 -5.78279 106.45635 7155 ft 268 kts 128°
2026-05-05 16:53 -5.79511 106.47043 7049 ft 268 kts 131°
2026-05-05 16:53 -5.80774 106.48414 6998 ft 265 kts 131°
2026-05-05 16:53 -5.82010 106.49747 6972 ft 256 kts 131°
2026-05-05 16:54 -5.83207 106.51028 6915 ft 246 kts 131°
2026-05-05 16:54 -5.84362 106.52264 6801 ft 239 kts 131°
2026-05-05 16:54 -5.85491 106.53481 6576 ft 238 kts 131°
2026-05-05 16:54 -5.86616 106.54696 6331 ft 237 kts 131°
2026-05-05 16:55 -5.87745 106.55901 6095 ft 236 kts 132°
2026-05-05 16:55 -5.88864 106.57106 6028 ft 236 kts 130°
2026-05-05 16:55 -5.89921 106.58366 5994 ft 234 kts 126°
2026-05-05 16:55 -5.90825 106.59728 5997 ft 235 kts 119°
2026-05-05 16:56 -5.91557 106.61199 5999 ft 236 kts 112°
2026-05-05 16:56 -5.92141 106.62745 5994 ft 236 kts 108°
2026-05-05 16:56 -5.92599 106.64302 5990 ft 236 kts 104°
2026-05-05 16:56 -5.92980 106.65906 5987 ft 235 kts 102°
2026-05-05 16:57 -5.93298 106.67512 5986 ft 235 kts 101°
2026-05-05 16:57 -5.93576 106.69126 5987 ft 234 kts 99°
2026-05-05 16:57 -5.93824 106.70745 5991 ft 234 kts 98°
2026-05-05 16:57 -5.94051 106.72362 5994 ft 233 kts 98°
2026-05-05 16:58 -5.94265 106.73977 5995 ft 234 kts 97°
2026-05-05 16:58 -5.94470 106.75598 5994 ft 234 kts 97°
2026-05-05 16:58 -5.94668 106.77223 5988 ft 234 kts 97°
2026-05-05 16:58 -5.94862 106.78844 5993 ft 234 kts 97°
2026-05-05 16:59 -5.95054 106.80466 5981 ft 233 kts 96°
2026-05-05 16:59 -5.94981 106.82076 5811 ft 231 kts 75°
2026-05-05 16:59 -5.94374 106.83566 5462 ft 229 kts 66°
2026-05-05 16:59 -5.93686 106.84948 5325 ft 213 kts 65°
2026-05-05 17:00 -5.93037 106.86228 5149 ft 200 kts 66°
2026-05-05 17:00 -5.92664 106.87070 4898 ft 199 kts 69°
2026-05-05 17:00 -5.91975 106.88759 4421 ft 196 kts 69°
2026-05-05 17:00 -5.91471 106.90012 4253 ft 183 kts 69°
2026-05-05 17:01 -5.91221 106.91212 4059 ft 180 kts 96°
2026-05-05 17:01 -5.91663 106.92389 4042 ft 184 kts 126°
2026-05-05 17:01 -5.92672 106.93167 3998 ft 186 kts 157°
2026-05-05 17:01 -5.93913 106.93524 4008 ft 186 kts 163°
2026-05-05 17:02 -5.95163 106.93824 3994 ft 183 kts 163°
2026-05-05 17:02 -5.96392 106.94117 3979 ft 181 kts 163°
2026-05-05 17:02 -5.97621 106.94409 3988 ft 181 kts 163°
2026-05-05 17:02 -5.98859 106.94635 3972 ft 183 kts 179°
2026-05-05 17:03 -5.99994 106.94114 3982 ft 187 kts 229°
2026-05-05 17:03 -6.00557 106.92911 4021 ft 195 kts 248°
2026-05-05 17:03 -6.01064 106.91627 3995 ft 198 kts 246°
2026-05-05 17:03 -6.01574 106.90352 3989 ft 195 kts 246°
2026-05-05 17:04 -6.02075 106.89095 3987 ft 192 kts 246°
2026-05-05 17:04 -6.02402 106.88272 3994 ft 190 kts 246°
2026-05-05 17:04 -6.03065 106.86605 3964 ft 197 kts 246°
2026-05-05 17:04 -6.03581 106.85307 3735 ft 201 kts 246°
2026-05-05 17:05 -6.04090 106.84025 3484 ft 198 kts 246°
2026-05-05 17:05 -6.04594 106.82755 3241 ft 193 kts 247°
2026-05-05 17:05 -6.05086 106.81516 2999 ft 189 kts 247°
2026-05-05 17:05 -6.05575 106.80289 2753 ft 188 kts 246°
2026-05-05 17:06 -6.06058 106.79072 2535 ft 188 kts 247°
2026-05-05 17:06 -6.06547 106.77844 2287 ft 188 kts 247°
2026-05-05 17:06 -6.07017 106.76659 2048 ft 177 kts 247°
2026-05-05 17:06 -6.07312 106.75917 1890 ft 168 kts 247°
2026-05-05 17:07 -6.07882 106.74484 1611 ft 162 kts 247°
2026-05-05 17:07 -6.08158 106.73791 1468 ft 164 kts 247°
2026-05-05 17:07 -6.08582 106.72724 1272 ft 164 kts 247°
2026-05-05 17:07 -6.09001 106.71670 1048 ft 163 kts 246°
2026-05-05 17:08 -6.09416 106.70629 874 ft 162 kts 247°
2026-05-05 17:08 -6.09838 106.69563 669 ft 166 kts 248°
2026-05-05 17:08 -6.10269 106.68485 411 ft 166 kts 248°
2026-05-05 17:08 -6.10695 106.67408 216 ft 167 kts 248°
2026-05-05 17:09 -6.11253 106.66010 39 ft 145 kts 248°
2026-05-05 17:09 -6.11479 106.65442 38 ft 109 kts 248°
2026-05-05 17:09 -6.11682 106.65044 41 ft 38 kts 223°
2026-05-05 17:09 -6.11801 106.64969 39 ft 9 kts 178°
2026-05-05 17:10 -6.11841 106.65011 38 ft 9 kts 95°
2026-05-05 17:10 -6.11820 106.65077 38 ft 10 kts 69°
2026-05-05 17:10 -6.11795 106.65143 36 ft 10 kts 68°
2026-05-05 17:10 -6.11769 106.65207 36 ft 10 kts 68°
2026-05-05 17:11 -6.11744 106.65267 38 ft 9 kts 68°
2026-05-05 17:11 -6.11720 106.65328 37 ft 9 kts 68°
2026-05-05 17:11 -6.11696 106.65386 35 ft 9 kts 67°
2026-05-05 17:11 -6.11673 106.65443 37 ft 9 kts 68°
2026-05-05 17:12 -6.11652 106.65499 37 ft 8 kts 69°
2026-05-05 17:12 -6.11631 106.65553 37 ft 8 kts 69°
2026-05-05 17:12 -6.11610 106.65604 37 ft 8 kts 67°
2026-05-05 17:12 -6.11586 106.65662 37 ft 11 kts 68°
2026-05-05 17:13 -6.11554 106.65742 37 ft 14 kts 68°
2026-05-05 17:13 -6.11516 106.65839 37 ft 10 kts 68°
2026-05-05 17:13 -6.11528 106.65904 37 ft 10 kts 141°
2026-05-05 17:13 -6.11593 106.65939 37 ft 10 kts 153°
2026-05-05 17:14 -6.11659 106.65967 37 ft 10 kts 158°
2026-05-05 17:14 -6.11724 106.65993 37 ft 10 kts 158°
2026-05-05 17:14 -6.11775 106.66010 37 ft 6 kts 189°
2026-05-05 17:14 -6.11791 106.65980 37 ft 4 kts 251°
2026-05-05 17:15 -6.11799 106.65962 37 ft 2 kts 248°
2026-05-05 17:15 -6.11802 106.65955 36 ft 1 kts 247°
2026-05-05 17:15 -6.11803 106.65953 37 ft 0 kts 247°